Wind_Speed
34 31 30 29 28 26 24 31 39 34 26 28 34 35 33 33 36 36 33 34 36 36 35 32 29 27 25 23 23 23 24 25 25 25 25 26 27 29 30 32 33 34 35 36 37 38 39 39 39 38 37 37 37 36 36 36 36 35 34 34 34 35 35 36 37 37 37 37 37 37 37 36 37 37 38 38 39 39 40 40 40 39 38 37 37 38 38
35 34 31 30 28 27 24 25 31 33 29 29 34 37 37 37 39 39 36 33 33 35 34 31 27 26 25 24 23 23 22 23 23 24 25 26 28 29 30 31 32 33 34 35 36 37 37 37 36 36 36 36 36 36 36 36 35 35 35 35 36 36 37 38 38 39 39 39 39 39 39 39 40 40 40 40 41 41 42 42 42 42 41 41 41 41 41
35 35 34 31 28 28 29 28 30 33 35 34 33 36 40 42 41 41 39 34 30 30 31 29 26 24 22 22 22 21 21 22 22 24 25 26 28 29 29 30 31 31 32 33 34 35 35 34 34 35 35 36 36 36 36 36 36 36 36 37 37 37 38 39 39 40 40 41 41 41 41 41 41 41 42 42 43 43 44 44 44 44 44 43 43 43 43
33 36 37 34 31 32 34 34 35 37 40 39 37 37 41 43 41 38 37 34 29 25 25 25 23 21 20 19 19 20 21 21 22 23 24 26 27 28 28 28 28 29 29 31 33 34 34 33 33 34 35 35 36 36 36 37 37 38 38 38 39 39 39 39 40 40 40 40 41 41 41 41 41 42 42 43 44 44 45 45 46 46 45 44 44 44 44
33 35 38 38 36 35 35 35 36 36 37 38 39 39 39 40 40 37 34 31 27 23 21 20 18 18 18 17 18 19 20 20 21 22 23 24 25 26 27 27 27 28 28 30 32 33 33 33 33 34 36 36 37 37 37 38 38 39 39 40 40 40 40 40 41 41 41 41 41 41 42 42 42 43 43 44 44 45 45 45 46 46 46 46 45 44 44
32 34 36 39 38 35 32 33 35 36 35 34 34 35 34 33 34 34 31 27 25 22 21 19 17 17 17 18 19 20 20 20 21 21 22 23 25 26 27 27 27 28 29 31 32 33 34 34 35 36 37 37 38 38 38 38 39 39 40 40 40 40 41 41 41 42 42 42 42 43 43 44 44 45 45 45 45 45 46 46 46 46 46 46 46 45 44
33 35 34 34 35 34 31 29 31 35 36 32 27 26 25 24 25 26 25 25 24 23 22 21 19 17 18 19 19 19 20 20 21 21 22 23 24 25 26 26 27 28 30 32 32 34 35 35 36 36 37 37 38 38 39 39 39 39 40 40 40 40 40 41 41 42 43 44 44 45 45 46 46 46 46 47 47 47 47 47 47 47 46 46 46 45 45
32 37 36 32 32 33 31 28 28 31 33 30 27 25 23 21 21 22 23 23 23 22 21 21 20 19 19 20 20 20 20 21 21 22 23 24 25 26 26 27 28 29 30 31 32 33 34 34 35 36 37 38 38 38 38 38 39 39 39 39 39 40 40 41 42 43 43 44 45 45 45 46 46 46 47 47 47 47 47 47 47 47 47 46 45 45 44
30 32 35 34 34 34 32 29 27 28 29 29 28 27 25 23 22 22 22 22 22 22 22 22 22 21 21 21 21 22 23 22 22 22 23 25 26 27 27 28 29 30 31 32 33 34 34 34 35 36 37 38 37 37 37 37 38 38 39 39 39 40 40 41 42 43 43 44 44 44 45 45 45 46 46 47 47 47 47 47 47 47 47 46 45 44 44
29 29 31 33 33 34 32 29 27 27 27 27 27 26 25 24 23 23 23 23 24 24 24 24 23 22 22 23 23 24 24 24 25 25 25 25 26 28 29 30 31 32 33 33 34 34 35 35 36 36 36 36 36 37 37 38 38 39 39 40 40 41 41 42 42 43 44 44 45 45 45 46 46 46 47 47 48 48 48 47 47 47 47 46 46 45 43
29 28 28 29 29 29 28 28 28 29 28 27 28 28 27 26 26 26 26 26 26 26 26 25 24 23 24 24 25 25 25 25 27 27 27 28 29 30 31 31 31 32 32 32 32 33 33 34 34 35 35 36 37 37 37 38 38 39 40 40 41 42 42 43 43 44 45 45 46 46 47 47 47 47 47 48 48 48 48 48 48 48 48 48 48 47 45
26 25 25 26 27 27 26 25 26 28 28 28 29 29 28 28 29 29 28 27 27 26 27 27 26 26 26 27 26 26 26 28 29 29 29 30 31 31 31 31 31 31 31 31 32 32 32 33 33 34 34 35 36 36 37 37 38 39 40 40 41 42 43 43 44 45 46 46 47 47 48 48 48 49 48 48 49 49 49 49 49 48 48 49 49 48 47
25 23 23 24 25 26 25 25 25 25 26 27 29 30 29 28 27 27 26 26 26 27 28 29 28 28 28 29 29 29 29 30 31 31 30 31 31 31 31 31 31 32 32 32 32 32 32 32 32 33 34 34 35 36 36 37 38 38 39 40 41 42 43 44 45 45 47 47 48 49 49 50 50 50 50 50 50 50 50 50 50 50 50 50 50 50 49
25 24 24 24 25 24 24 25 25 26 27 29 30 30 29 27 27 27 26 26 27 28 29 28 28 28 29 30 30 30 30 30 31 31 31 31 31 31 31 30 31 31 31 31 31 31 31 31 31 32 33 33 34 35 35 36 37 38 39 39 41 42 42 43 44 45 46 47 48 49 49 50 50 51 51 51 51 51 51 51 51 51 51 51 52 51 51
24 25 26 26 25 23 23 23 25 26 27 27 26 26 26 26 26 26 27 27 28 28 28 28 28 29 29 29 30 30 30 30 30 30 30 30 30 29 29 29 29 29 29 29 29 29 29 30 30 30 31 32 33 33 34 35 36 36 37 38 39 40 41 42 43 44 45 46 47 48 49 50 50 50 51 51 51 51 51 50 50 51 51 51 52 52 52
21 20 22 21 20 20 22 22 23 23 23 23 24 25 25 26 26 26 27 27 28 28 28 28 28 28 29 29 30 30 30 30 29 29 28 28 27 27 27 27 27 27 27 27 27 27 28 28 28 29 30 30 31 32 32 32 33 34 35 36 37 39 40 41 43 44 45 46 48 48 49 50 51 51 51 52 52 52 51 51 50 50 50 50 50 51 52
20 20 20 19 18 20 21 22 21 21 21 22 24 25 26 27 27 27 27 27 28 28 28 28 29 29 29 29 29 29 29 28 27 27 26 26 25 25 25 24 24 24 24 24 25 25 26 26 27 27 27 28 28 29 29 30 31 32 33 34 35 37 38 39 40 42 43 44 45 46 47 48 49 49 50 51 51 52 52 52 51 51 50 50 50 50 50
21 23 23 21 21 21 22 22 22 22 22 24 25 26 26 27 27 27 28 28 29 29 29 29 29 29 29 28 28 27 27 26 25 25 24 24 23 22 22 22 22 22 22 23 23 23 24 24 24 24 25 25 26 26 27 27 27 28 29 30 31 32 33 34 35 36 37 38 39 40 42 43 44 44 45 46 46 47 48 49 50 51 51 51 51 50 50
23 24 24 23 23 23 23 23 23 23 23 24 25 25 26 26 27 27 28 28 28 28 28 28 27 27 27 26 25 25 24 24 23 23 23 22 21 21 21 20 20 21 21 21 21 21 21 21 22 22 22 22 21 21 21 21 22 23 24 25 27 28 29 30 30 31 32 33 34 34 36 37 38 39 39 40 41 41 42 43 45 46 48 49 50 50 50
24 25 25 25 24 24 25 25 25 24 24 24 24 24 25 25 26 26 27 27 26 26 26 26 25 25 25 24 24 23 23 23 23 22 22 21 20 20 20 19 19 19 19 19 18 18 19 19 18 18 17 16 15 15 16 17 18 20 21 23 24 25 26 27 29 30 31 31 31 32 32 33 34 35 35 36 37 37 38 38 39 40 41 43 44 46 48
24 25 26 26 25 25 25 24 24 24 23 23 23 23 24 24 24 25 25 25 25 25 24 24 24 23 23 23 23 22 22 22 22 21 20 19 19 18 18 17 17 16 16 16 16 16 15 14 13 12 11 11 12 13 14 15 17 18 19 21 22 24 26 27 29 30 31 32 33 34 33 33 33 33 34 34 35 35 36 36 37 37 37 37 38 40 42
25 25 25 25 25 25 25 25 24 23 23 23 24 24 23 23 23 24 24 24 24 24 23 23 22 22 22 22 22 21 21 20 19 18 17 17 16 16 15 15 14 14 14 14 13 12 11 10 9 9 9 10 11 12 13 15 16 17 19 20 22 24 25 27 28 30 31 33 34 35 36 36 36 35 34 33 34 34 34 34 35 36 36 36 36 36 37
22 23 24 25 24 23 24 24 23 23 23 23 24 23 23 23 23 23 23 23 23 23 22 22 21 21 21 20 20 19 18 17 16 15 15 14 14 13 13 13 13 12 11 10 9 8 8 7 8 8 9 10 11 12 14 15 16 17 19 21 22 24 25 27 28 29 30 32 33 34 36 37 38 38 36 34 33 33 33 32 32 33 34 35 36 36 36
20 21 21 21 21 23 24 24 24 24 23 23 23 23 22 23 23 22 22 22 22 22 21 21 21 20 19 18 16 15 14 14 14 14 14 13 12 12 12 11 10 9 8 7 7 7 6 7 7 8 9 11 12 13 14 15 16 17 19 21 22 24 25 26 27 29 30 31 32 33 34 36 37 38 39 38 36 34 33 32 31 31 31 33 33 34 34
22 22 21 20 22 24 25 25 24 23 23 22 22 21 21 21 20 20 20 20 20 20 20 19 19 18 16 15 14 14 14 14 14 13 12 11 11 10 10 9 8 7 7 6 6 6 6 7 8 9 10 11 12 13 14 15 16 18 19 20 22 23 24 26 27 29 30 31 32 33 34 35 36 38 39 40 40 38 36 34 33 32 31 31 32 32 32
21 21 21 22 23 23 22 22 21 21 20 19 19 19 19 18 19 19 19 18 18 18 17 17 17 16 15 15 14 14 14 14 13 12 11 10 9 9 8 7 7 6 6 5 5 5 6 7 8 9 10 11 12 14 15 16 17 18 19 20 22 23 25 26 27 27 29 30 31 33 34 35 36 38 39 41 42 42 41 39 37 35 34 33 33 33 32
19 19 20 20 21 20 20 19 19 19 18 18 18 18 17 17 17 17 16 16 15 16 16 16 16 16 16 15 15 14 14 12 11 10 9 9 8 7 7 6 5 5 4 4 5 5 6 7 8 9 10 12 13 14 15 16 17 18 19 20 22 23 24 25 26 27 29 30 31 32 34 35 36 37 38 40 42 43 44 43 41 39 39 38 36 35 34
17 18 19 21 21 21 20 20 19 18 18 18 18 18 17 16 15 15 14 14 15 15 16 15 16 16 16 15 14 14 12 11 10 10 9 8 7 6 6 5 4 3 4 4 5 6 7 7 9 10 11 12 13 14 15 16 17 18 19 20 21 23 24 25 26 27 28 29 31 32 33 35 36 36 37 39 40 42 44 45 43 42 41 41 40 38 36
16 17 18 19 20 20 20 20 20 19 18 17 18 17 16 15 15 15 15 15 16 16 16 16 16 16 16 15 14 12 11 11 10 9 8 7 7 5 4 3 3 3 4 4 5 6 7 8 9 10 11 12 14 15 16 17 18 19 20 21 22 23 24 25 26 27 28 29 31 32 33 34 35 36 37 38 39 41 43 45 45 44 42 42 42 40 37
10 11 11 12 13 14 16 18 18 17 16 16 16 16 17 17 17 17 17 16 16 17 16 16 15 15 15 14 13 12 11 10 9 9 8 7 5 4 3 2 2 3 4 5 6 7 8 9 9 11 12 13 14 15 16 17 18 19 20 22 23 23 24 25 26 27 28 30 31 32 33 34 35 36 37 38 38 40 41 43 45 45 44 43 43 41 38
7 6 7 8 8 10 12 14 14 14 14 14 15 15 16 16 16 16 16 17 16 16 16 15 14 14 14 14 13 11 11 10 9 8 7 5 4 3 2 2 3 4 5 6 7 7 8 9 10 11 12 13 14 15 16 17 18 19 20 21 22 23 24 25 25 26 27 29 30 31 32 34 35 36 37 38 38 39 41 42 44 45 44 43 43 42 40
7 7 7 6 6 8 10 11 12 11 11 12 13 13 14 14 15 15 16 16 16 15 14 14 14 14 14 13 12 11 10 10 8 7 6 4 3 2 2 2 4 5 5 6 7 8 9 10 11 11 12 13 14 15 16 18 19 20 21 22 22 23 24 25 25 26 27 28 30 31 33 34 35 36 37 38 39 39 40 41 43 45 45 44 44 43 42
9 9 8 7 6 7 8 9 9 8 9 11 11 11 12 14 15 16 16 15 15 14 13 13 14 14 14 13 12 11 10 9 8 6 4 3 2 2 2 3 4 5 6 6 7 8 9 10 11 12 13 14 15 17 18 19 20 22 23 23 24 24 25 25 26 27 28 29 30 31 32 34 35 37 38 39 39 39 40 40 42 43 44 44 44 44 43
8 8 9 9 8 8 8 8 8 7 8 10 11 11 12 13 14 14 14 14 13 13 13 14 14 14 13 12 12 11 10 9 7 5 4 3 2 1 2 3 4 5 6 6 7 8 9 11 12 13 14 16 17 18 19 21 22 23 24 25 26 26 26 27 27 28 28 29 30 31 32 33 35 36 38 38 39 40 40 41 41 43 44 44 44 43 43
6 7 8 8 8 8 8 8 8 9 9 10 11 11 11 12 11 11 11 12 12 13 14 15 15 14 13 12 12 11 10 8 6 5 4 3 2 2 3 4 4 5 6 7 8 9 10 12 13 14 16 17 18 19 20 21 22 24 25 26 27 28 28 28 28 28 29 30 31 32 33 34 35 36 37 38 39 40 41 41 42 42 44 44 45 44 43
7 7 7 7 7 7 7 8 8 9 9 10 10 10 11 11 11 11 11 12 13 14 15 15 14 14 13 12 12 11 10 8 7 5 4 3 2 2 3 4 5 6 7 8 9 10 12 13 14 15 16 18 19 20 20 22 23 24 26 27 28 29 29 29 29 29 30 30 31 32 33 34 35 37 37 38 39 40 41 41 42 42 43 44 45 45 44
7 7 7 7 7 7 8 8 8 8 8 9 9 10 11 11 11 12 13 14 15 15 15 15 14 14 13 13 12 11 10 8 7 6 4 3 3 3 4 5 6 7 7 9 10 11 13 14 15 16 17 18 19 20 21 22 23 24 26 27 28 29 30 30 30 31 31 31 32 32 33 34 35 37 38 39 39 40 41 41 41 42 42 43 44 45 44
6 6 6 7 7 7 8 8 9 9 9 9 9 10 11 11 12 12 13 14 15 15 15 15 14 14 14 14 13 12 10 9 7 6 4 4 4 4 5 6 7 8 8 10 11 12 14 15 16 17 18 19 20 21 22 23 24 25 26 28 29 29 30 31 31 31 32 32 32 32 33 34 35 36 38 38 39 40 40 41 41 41 42 42 43 44 44
6 7 7 8 8 8 9 9 9 9 9 9 10 10 11 11 12 13 14 14 15 15 15 15 15 15 15 15 13 12 10 9 8 6 5 5 5 6 6 7 8 9 10 11 12 13 15 16 17 19 20 21 22 22 23 24 25 26 27 28 29 29 30 31 32 32 33 33 33 33 34 34 35 36 37 38 39 39 40 41 42 42 42 42 42 43 44
7 8 9 9 10 10 10 10 10 10 10 10 10 11 12 12 13 14 14 14 15 15 16 16 16 16 16 15 14 13 11 10 8 7 7 7 7 8 8 8 9 10 11 12 13 14 15 17 18 19 20 21 22 22 23 24 25 26 28 28 29 29 30 31 32 33 33 34 34 34 34 34 35 36 37 38 38 39 40 40 41 42 42 42 42 42 43
8 9 10 11 11 12 12 12 12 11 11 11 12 12 13 13 14 14 14 15 15 16 16 17 17 17 16 16 15 13 12 11 10 9 9 8 9 9 10 10 10 12 13 14 15 16 17 18 19 20 21 22 22 22 23 24 25 27 28 29 29 29 30 31 32 33 34 34 34 34 35 35 35 36 37 38 38 39 39 40 41 41 41 42 42 42 42
7 8 9 10 11 12 13 13 13 13 13 13 13 13 13 13 14 14 14 15 16 17 17 17 17 17 17 17 16 14 13 12 11 10 10 10 10 11 11 11 12 13 15 15 16 17 18 19 20 21 22 23 23 23 24 24 26 27 28 29 29 30 30 31 32 33 34 34 35 35 35 36 36 36 37 37 38 38 39 39 40 41 41 41 41 42 41
6 7 8 9 10 11 12 13 14 14 13 13 13 13 13 13 13 14 15 15 17 17 18 18 17 17 17 17 16 16 14 13 13 12 12 12 12 13 13 12 13 15 16 16 17 18 18 19 21 22 22 23 24 24 25 26 27 28 28 29 29 30 31 31 32 33 33 34 35 36 36 36 36 36 37 37 38 38 39 39 39 40 41 41 41 41 41
8 8 8 9 10 11 12 13 14 14 14 13 13 13 13 13 14 14 15 16 18 18 18 18 18 18 18 18 17 16 16 15 14 14 14 13 14 15 15 14 14 16 17 17 17 18 18 19 21 23 24 25 25 25 26 26 28 29 29 30 30 30 31 32 32 33 34 34 35 36 37 37 37 37 37 37 38 38 39 39 39 40 40 40 40 40 40
9 9 9 9 10 11 12 13 14 14 14 14 14 14 14 14 14 15 16 17 19 19 19 19 19 18 18 18 18 17 17 17 16 16 16 15 15 16 16 16 15 16 18 18 18 18 18 19 20 22 24 25 26 26 26 27 28 29 30 30 31 31 32 33 33 33 34 34 35 36 37 37 37 37 37 38 38 38 38 39 39 40 40 40 40 39 39
11 10 10 10 11 11 12 13 14 15 15 14 14 14 14 14 15 15 16 18 19 20 20 20 20 19 19 20 19 19 18 18 17 17 17 16 16 16 17 17 17 18 19 19 19 19 19 20 21 23 24 25 26 26 26 27 28 29 29 30 31 32 33 33 34 34 35 35 35 36 37 38 38 37 37 37 38 38 38 38 39 39 40 40 40 40 39
13 12 12 12 12 12 12 13 15 15 15 14 14 15 15 15 15 16 16 17 19 20 21 21 21 21 21 21 21 21 20 20 19 19 18 18 17 17 18 18 19 19 20 20 20 20 20 21 22 24 25 26 26 27 27 28 29 29 30 31 32 32 33 34 35 35 35 36 36 37 38 39 39 39 38 38 38 39 39 38 38 39 39 40 40 40 39
14 14 14 14 13 13 13 13 15 15 16 16 16 16 17 16 16 16 17 18 19 20 21 22 23 23 23 23 23 23 22 22 22 22 21 20 19 19 19 19 20 21 21 21 21 21 21 22 24 25 26 27 28 28 28 29 30 30 31 32 33 33 34 35 35 36 36 36 37 38 38 39 40 41 40 40 40 40 39 39 38 38 39 40 40 40 39
16 15 15 15 15 14 13 14 14 16 17 18 19 18 18 18 18 17 18 18 19 20 21 22 23 24 24 25 24 24 24 24 24 24 24 23 22 21 21 21 22 22 22 22 22 22 23 24 25 26 27 28 29 29 30 30 31 31 32 33 34 34 35 35 36 36 36 36 37 37 38 39 40 41 41 40 40 40 40 39 39 38 39 39 40 40 39
17 16 15 15 15 15 15 15 15 17 18 20 21 21 20 19 19 19 19 19 20 20 21 22 22 23 23 24 24 24 24 24 24 24 24 24 24 23 22 22 23 24 24 24 24 24 24 25 27 28 29 30 30 31 31 32 32 33 34 34 35 35 36 36 36 36 36 36 37 37 38 39 40 41 41 41 41 40 40 39 39 39 39 39 40 40 39
17 17 17 16 17 17 17 17 18 18 19 20 21 22 21 21 20 20 20 20 21 21 21 21 22 22 22 22 22 23 23 23 23 23 23 24 25 25 24 23 23 25 26 26 25 25 25 27 28 29 30 31 32 32 32 33 33 34 35 36 36 36 37 37 37 37 37 36 37 37 38 39 40 41 41 41 41 41 40 40 39 39 39 39 40 40 40
19 18 18 18 18 18 18 19 19 20 20 20 21 22 22 22 22 22 22 22 22 22 22 22 22 21 21 21 21 21 21 22 22 22 23 23 25 26 26 25 25 25 27 28 28 27 27 27 28 30 31 32 33 34 34 34 34 35 36 36 37 37 38 38 38 38 38 37 37 38 39 39 40 41 42 42 42 41 41 40 39 39 39 40 40 40 40
Wind_Direction
212 212 211 213 219 220 217 218 217 217 216 206 206 213 215 217 226 231 231 230 229 232 236 238 238 239 242 243 243 242 241 241 242 242 242 243 243 245 247 248 251 253 254 256 257 258 259 260 262 264 267 269 270 272 273 274 276 276 276 276 276 276 276 276 276 277 277 277 277 278 279 280 281 282 283 284 284 285 285 286 286 288 288 289 290 291 294
216 217 215 213 214 215 215 214 215 218 218 210 209 214 215 217 223 226 229 231 231 232 235 237 240 242 242 240 238 239 239 240 241 242 243 245 246 247 248 250 252 253 254 254 254 255 257 259 262 265 267 269 271 273 274 276 277 278 278 278 278 278 279 279 279 278 278 278 278 279 279 280 281 282 283 283 284 284 284 284 285 286 287 288 289 290 292
215 215 214 214 214 213 213 207 204 210 216 216 213 214 216 219 223 224 225 227 229 232 233 235 238 237 234 232 232 234 237 240 242 244 245 247 249 250 250 251 252 252 252 253 253 254 257 260 263 265 268 270 272 274 276 277 278 279 280 280 280 280 281 281 281 280 280 280 279 280 280 280 281 281 281 282 282 282 283 283 283 285 286 287 288 289 290
214 214 214 215 217 217 215 209 204 208 215 217 215 214 216 219 222 226 226 224 226 229 227 227 229 229 230 232 235 239 242 244 245 246 246 247 249 251 252 252 253 252 252 252 253 255 259 262 264 267 269 271 273 275 277 278 279 280 281 281 281 282 282 282 282 281 281 281 281 281 281 280 280 280 280 280 281 281 281 282 282 284 285 286 287 288 289
213 214 215 217 219 222 222 218 215 215 216 218 219 219 220 221 223 225 224 220 221 222 219 221 227 232 237 242 244 246 247 247 247 248 247 247 248 250 252 252 253 253 253 254 255 259 263 264 265 268 271 273 275 277 278 279 280 281 282 282 282 282 282 282 281 281 281 281 281 281 281 281 281 280 280 280 280 280 280 281 281 282 284 285 286 287 287
215 215 216 218 221 223 221 217 215 214 215 218 222 222 220 220 221 222 221 221 224 228 230 236 243 246 248 249 249 250 249 248 248 248 248 248 248 250 252 253 254 255 255 257 260 264 266 267 269 271 273 275 276 278 279 280 281 281 282 282 282 282 282 281 281 280 280 280 281 281 281 281 281 280 280 280 279 280 280 280 280 281 283 284 285 285 286
218 217 217 217 217 217 216 215 215 215 217 220 224 225 222 219 219 222 226 229 233 237 243 249 254 253 251 251 251 251 250 250 250 249 248 248 249 251 253 254 255 258 260 262 265 267 268 270 272 274 275 276 278 279 280 280 281 281 281 281 281 281 281 281 281 280 281 281 281 282 282 282 281 281 280 280 279 279 279 279 279 280 280 281 282 283 284
217 218 219 219 218 218 221 223 223 222 224 226 227 226 225 223 222 225 229 233 239 245 251 255 256 254 252 251 251 250 251 253 254 254 252 252 252 253 255 257 259 261 264 266 267 268 269 272 273 275 276 277 278 279 280 280 281 281 281 281 281 280 280 280 281 281 281 282 282 282 283 282 282 281 281 281 280 280 279 279 279 279 279 279 279 280 280
218 221 223 225 227 227 228 229 228 226 226 227 227 226 225 225 227 228 232 238 245 250 253 254 255 255 255 254 253 253 254 257 259 260 258 255 255 256 258 261 263 264 266 267 268 269 271 273 275 276 277 278 279 280 281 281 281 281 281 281 281 281 281 281 281 281 282 282 282 283 283 283 282 282 281 281 280 280 279 279 278 278 278 278 277 277 277
222 225 227 228 230 232 232 232 231 228 226 226 227 227 227 229 232 235 238 243 247 249 250 249 249 252 255 257 258 257 257 259 261 261 260 259 259 260 263 265 267 268 268 269 270 271 273 275 276 277 278 279 280 282 282 283 283 283 283 283 282 282 282 282 283 283 283 283 283 283 283 283 282 282 281 280 280 280 279 279 278 278 277 278 277 277 276
221 224 227 226 226 229 230 229 226 225 224 224 224 225 226 230 235 238 241 243 244 247 249 249 248 251 255 260 261 258 256 258 260 260 262 264 265 266 267 268 269 270 271 271 272 273 275 277 277 277 278 280 281 283 283 284 284 284 284 285 284 285 285 284 285 285 285 285 285 285 285 284 284 283 282 281 280 280 279 278 278 278 277 277 278 278 277
217 221 225 227 227 227 228 226 222 221 223 224 225 225 227 232 237 239 238 239 242 247 252 255 256 256 257 260 261 257 257 259 261 262 264 266 267 268 268 269 270 271 272 272 274 276 277 278 278 278 279 281 282 283 284 285 286 286 286 287 287 287 288 288 288 288 288 288 287 287 287 286 286 285 285 284 283 282 281 280 279 278 277 277 278 278 278
220 224 229 232 231 229 227 226 225 224 226 229 231 230 230 234 239 241 240 242 246 251 254 255 256 257 257 258 258 258 259 261 262 263 264 265 266 267 268 269 271 271 272 273 275 276 277 278 279 280 281 282 283 284 286 287 288 289 289 290 291 291 291 291 290 290 290 290 289 289 288 288 287 287 286 286 285 284 283 283 281 280 279 278 277 278 278
226 230 233 233 232 231 230 230 231 232 233 234 237 237 237 239 242 246 248 250 252 253 254 254 255 256 256 256 257 258 259 260 262 264 265 265 266 267 268 270 270 271 272 273 274 276 277 278 280 281 282 283 285 286 288 289 290 291 292 292 293 293 293 292 292 291 291 290 289 289 288 288 287 287 286 286 285 285 284 284 283 282 281 280 279 278 278
222 229 233 235 237 237 235 234 234 234 236 238 241 243 244 243 244 246 249 250 251 252 253 254 254 254 254 256 257 258 259 260 262 264 266 266 267 268 268 269 269 270 271 273 275 277 278 279 281 283 284 286 288 289 290 292 293 293 294 294 294 294 293 293 292 291 291 290 289 289 288 287 287 286 286 285 284 284 283 283 282 282 282 281 281 280 279
214 224 233 235 236 237 237 236 237 238 240 241 242 243 244 245 244 245 246 248 250 251 252 252 253 254 255 256 257 259 260 261 263 264 265 266 266 267 268 268 269 271 272 274 275 277 279 281 283 286 287 289 291 292 293 294 294 295 295 295 295 295 295 295 294 293 292 291 291 289 288 288 287 286 286 285 284 283 283 282 281 281 280 280 280 280 280
220 231 236 235 234 237 239 240 241 241 241 241 241 242 243 244 244 245 246 247 249 250 251 252 253 254 256 257 259 260 261 262 263 263 264 264 265 266 267 268 270 271 272 274 276 279 282 285 286 288 290 292 293 294 295 296 297 298 298 299 300 300 300 300 300 299 298 297 296 295 292 291 290 289 288 287 286 285 284 283 282 281 280 279 278 278 278
227 235 239 238 237 240 242 243 243 243 242 242 242 244 245 246 246 247 248 249 250 252 253 254 255 256 257 258 259 260 261 261 262 262 262 263 264 265 266 268 270 272 274 277 280 283 284 286 288 289 291 293 295 296 298 300 303 305 307 309 311 312 312 312 312 311 310 308 307 305 302 299 297 295 293 291 289 288 286 285 284 282 281 279 278 277 276
233 238 243 244 243 243 245 245 244 243 242 242 244 245 247 248 248 248 249 250 252 253 253 254 255 255 256 257 257 258 258 258 259 259 260 261 263 264 267 269 271 274 277 279 281 283 284 286 288 291 293 295 298 301 306 311 316 320 323 325 327 328 329 330 329 328 327 325 322 320 317 313 310 307 305 302 299 297 294 290 288 286 284 282 280 278 276
237 239 242 244 245 245 246 246 245 244 244 246 247 248 248 248 248 249 250 251 251 251 252 252 252 252 252 253 254 254 255 255 257 258 260 262 264 265 267 269 272 274 276 278 279 282 284 286 289 292 295 299 305 312 320 326 331 335 338 340 342 344 346 347 348 348 346 344 341 338 334 329 324 320 317 314 311 308 305 301 297 294 291 287 284 281 279
237 239 240 243 245 245 246 246 246 246 247 248 249 249 248 248 249 249 249 249 249 250 250 250 250 250 250 251 251 252 253 254 256 258 259 261 262 264 265 267 269 270 272 276 279 281 283 286 289 293 300 309 317 325 331 336 341 344 347 349 351 354 355 356 357 358 357 357 356 354 351 346 340 333 328 324 320 317 314 312 308 304 301 296 292 288 284
237 239 240 242 243 244 246 247 247 246 246 246 247 247 247 248 248 248 249 249 249 249 249 250 250 250 249 250 250 251 251 253 254 254 255 255 256 257 259 261 263 267 272 274 276 276 278 283 290 299 310 318 325 331 335 339 343 346 348 351 353 355 356 356 357 357 357 358 359 359 359 357 353 347 340 333 328 324 321 319 316 313 310 306 302 298 294
242 242 243 244 245 246 248 248 248 247 247 247 247 247 247 247 247 248 248 249 249 250 250 249 249 248 248 248 248 248 248 247 247 246 246 247 248 249 252 257 262 266 266 265 266 268 274 285 297 308 317 323 328 333 337 341 344 347 349 351 352 353 354 354 354 355 355 356 357 358 359 359 359 356 351 345 338 333 328 325 322 318 314 311 308 304 301
245 245 246 248 248 248 247 247 247 247 248 249 250 249 248 248 248 248 247 247 248 249 249 248 247 246 246 244 242 239 236 235 235 236 236 238 241 245 250 254 255 253 251 251 258 268 280 294 306 315 321 327 331 335 339 342 346 348 350 351 352 352 353 353 353 353 354 355 355 355 356 357 358 359 358 355 350 343 336 332 328 324 321 317 313 309 304
247 248 248 247 246 246 247 248 249 250 250 250 250 248 247 246 245 244 243 244 245 245 245 244 243 240 237 231 227 225 225 226 227 228 229 233 238 242 243 241 237 237 241 250 263 278 294 306 314 321 327 332 335 337 340 343 346 349 350 350 350 350 351 352 353 353 354 354 354 354 353 354 355 357 358 358 356 352 347 341 337 334 331 327 322 316 310
249 249 247 246 246 247 247 247 247 246 246 246 245 244 242 240 239 238 238 238 238 237 236 235 233 228 222 218 217 218 219 219 219 221 225 230 232 229 224 222 226 234 246 260 278 295 307 316 322 328 333 336 337 339 341 343 345 347 348 348 348 348 349 350 351 352 352 352 353 353 353 352 353 354 355 356 357 357 354 349 345 342 339 337 333 328 323
242 241 240 241 242 243 242 241 240 238 238 237 237 237 236 235 234 234 233 230 228 226 223 221 219 216 212 211 212 211 209 210 213 216 219 218 212 208 210 217 228 242 258 278 296 309 317 324 329 334 337 337 338 339 341 342 343 344 345 346 346 346 347 348 348 349 350 351 351 352 352 352 352 352 352 353 355 357 356 354 351 348 346 345 343 338 333
240 242 242 243 242 241 238 236 234 234 235 235 235 234 233 232 229 225 221 218 215 214 210 209 210 208 204 202 202 202 202 206 209 208 203 198 196 200 211 222 237 258 279 297 310 318 325 331 335 336 337 336 336 338 338 339 340 341 341 342 343 344 344 345 346 347 347 348 349 350 351 351 351 350 350 352 353 355 356 355 354 352 350 348 347 344 339
245 246 245 245 243 242 240 238 235 233 234 235 234 229 225 222 218 212 208 205 205 204 202 201 203 201 196 193 194 197 201 202 199 192 188 189 196 205 216 232 257 283 301 313 321 328 333 336 337 337 335 335 335 336 337 337 338 339 339 340 341 342 342 343 344 344 345 346 347 348 349 349 349 350 350 351 351 353 355 356 355 354 352 351 350 347 343
236 235 232 229 227 229 233 235 232 227 225 226 226 222 216 212 208 204 202 200 200 199 195 193 193 192 190 191 195 198 196 192 186 183 188 194 202 211 226 258 292 310 321 327 333 337 339 340 339 336 335 335 336 337 337 338 339 340 340 339 339 340 341 341 342 342 344 344 345 346 347 348 349 350 350 350 350 351 354 356 356 356 354 353 352 350 347
203 203 201 199 203 212 221 224 221 216 213 215 216 214 211 208 204 201 198 197 196 194 189 186 187 189 192 194 195 192 186 182 182 187 196 200 208 224 250 300 322 331 336 339 343 345 344 342 340 339 338 339 340 341 342 343 342 342 342 341 340 340 339 340 341 342 342 343 343 344 345 347 348 349 349 350 350 350 352 354 356 357 356 355 353 352 351
187 191 190 185 190 202 209 208 205 202 204 209 209 207 205 204 201 197 194 192 190 188 187 188 192 194 195 195 191 184 180 182 187 193 200 206 221 247 289 326 337 343 348 350 351 351 350 348 348 347 347 348 349 349 350 349 348 346 345 343 342 341 340 340 341 341 341 341 342 343 344 346 347 348 349 350 350 350 350 352 354 357 357 357 356 354 353
188 188 179 169 175 190 195 194 191 191 198 201 198 193 193 194 193 190 188 186 186 189 192 195 197 196 194 190 184 179 181 186 191 196 204 215 235 265 316 340 349 354 356 357 359 359 359 358 358 357 357 357 356 356 356 354 353 351 349 346 345 344 342 341 341 342 342 342 342 343 344 345 346 347 348 349 349 350 350 351 353 355 357 358 358 356 355
201 196 182 172 174 179 182 181 181 185 192 191 183 180 183 187 189 188 188 188 191 197 200 199 198 195 190 184 180 181 186 191 194 199 207 218 238 283 331 347 355 358 360 3 6 6 4 3 1 359 357 357 357 357 356 355 354 353 351 350 348 346 345 344 343 343 342 341 342 343 344 345 346 347 347 347 348 349 350 350 351 353 357 359 360 359 357
197 197 187 179 176 174 176 180 181 183 185 185 182 183 186 189 191 194 196 199 202 203 201 199 196 190 185 181 182 186 191 194 198 203 209 217 241 296 335 347 352 356 359 2 3 3 0 358 356 354 352 351 352 352 352 351 352 351 350 350 349 347 346 345 344 343 342 342 342 343 344 345 346 346 346 347 348 349 350 350 350 352 355 357 359 0 360
176 177 175 174 174 177 184 191 193 193 193 191 191 194 196 198 200 202 204 206 206 203 200 197 192 186 184 185 188 192 195 198 203 209 213 223 253 299 327 339 346 350 354 355 355 355 354 351 349 349 347 345 346 347 347 347 347 347 347 347 348 347 346 345 344 344 343 343 343 343 344 344 345 346 346 347 347 348 349 350 349 350 352 355 357 359 1
176 178 177 179 185 192 197 200 202 202 202 199 198 199 200 201 203 205 206 207 207 204 200 196 190 187 189 193 195 197 200 205 210 216 224 239 267 298 319 332 340 344 347 348 348 348 348 345 344 343 342 341 342 344 344 344 344 344 344 345 345 344 344 344 344 344 344 343 343 343 344 344 345 346 346 346 347 347 348 349 349 349 350 352 355 358 360
182 187 190 192 196 201 203 203 203 202 202 202 203 203 203 204 205 208 209 209 208 205 201 196 194 194 196 198 201 204 208 213 220 227 238 256 276 295 310 324 332 336 339 341 342 343 343 341 340 339 339 338 340 341 341 341 341 341 342 342 342 342 343 343 343 343 343 343 343 343 343 344 344 345 346 346 346 346 347 348 348 348 349 350 353 356 358
196 201 205 205 206 207 209 210 210 209 209 210 212 211 211 212 212 211 211 211 210 207 202 199 200 201 202 203 206 210 215 222 229 237 249 264 278 291 303 314 323 326 329 332 335 337 337 336 336 338 339 338 337 338 339 339 339 340 339 339 339 340 341 341 341 341 342 342 342 342 343 343 344 344 345 345 346 346 346 347 347 348 348 349 351 354 356
213 214 217 216 217 217 216 216 218 218 218 219 221 221 220 219 219 218 216 215 212 208 205 204 206 207 207 208 212 217 223 230 238 246 256 267 278 288 297 306 311 314 318 323 326 329 330 331 333 336 338 336 335 336 336 336 337 337 337 336 337 337 338 339 339 340 341 341 342 342 342 343 343 343 344 345 345 345 346 346 347 347 348 348 349 352 354
223 223 224 224 224 224 223 222 222 222 221 221 223 224 224 224 224 222 219 216 213 211 210 211 212 212 212 215 218 224 230 237 245 253 262 270 278 284 292 299 303 305 310 315 318 321 325 327 329 333 335 335 334 334 334 333 334 335 335 334 334 334 335 336 338 338 339 340 340 341 342 342 342 342 343 344 344 345 345 345 346 346 347 347 347 349 351
230 231 232 231 230 228 228 226 224 222 221 221 223 224 225 226 225 223 220 217 215 213 214 216 218 218 219 221 225 229 236 243 250 257 265 271 277 282 289 295 297 299 304 310 313 316 321 323 325 330 333 332 331 331 331 330 331 332 332 332 331 331 332 333 335 336 338 339 339 340 341 341 341 341 342 342 343 344 344 345 345 345 345 346 346 347 349
240 239 239 239 237 234 232 229 225 222 220 221 222 224 226 226 226 225 223 220 217 217 218 220 222 224 225 227 230 234 240 246 253 259 266 272 276 282 289 294 293 294 300 306 309 313 318 321 322 326 329 329 328 329 329 328 329 330 330 329 328 328 329 330 332 334 336 337 338 339 339 340 340 340 340 341 342 343 343 343 344 344 344 345 345 345 347
248 247 244 243 242 239 236 232 227 223 222 222 225 228 229 229 228 227 225 222 221 221 222 224 227 229 231 234 237 240 244 249 254 261 268 274 277 281 288 293 292 292 297 303 307 311 315 318 320 324 327 328 328 328 328 327 327 328 328 328 328 327 327 328 330 332 334 335 336 337 337 338 338 338 339 339 340 341 342 342 342 343 344 344 343 344 344
256 254 252 250 247 244 240 237 232 228 226 227 229 231 233 233 232 230 228 225 225 225 227 229 231 233 235 238 241 244 248 252 257 262 268 274 278 282 286 290 291 291 294 300 305 308 312 315 318 322 324 326 326 326 326 326 326 328 328 329 328 327 327 328 329 330 331 333 334 334 335 336 336 337 337 337 338 339 340 341 341 341 342 342 342 342 343
260 259 256 253 251 248 244 240 236 233 232 232 232 234 236 236 235 234 233 231 230 230 232 234 236 238 240 243 246 248 251 255 259 263 268 274 279 282 285 289 291 292 293 298 302 306 309 312 316 319 322 323 324 325 325 326 328 329 329 329 329 328 327 327 328 328 329 330 332 333 334 334 335 335 335 335 336 337 338 339 339 339 340 340 341 341 341
260 261 259 257 255 252 248 244 241 240 238 236 235 237 238 239 238 238 237 236 236 236 237 239 241 243 245 247 249 252 254 258 262 265 269 273 278 282 286 289 290 291 294 297 301 304 306 309 312 316 319 321 323 324 325 326 327 329 329 329 329 328 327 327 326 327 327 328 330 331 332 333 333 334 335 335 335 335 336 337 337 338 338 339 339 339 339
259 260 261 261 259 256 253 250 247 245 242 240 239 239 241 242 242 242 241 242 242 242 243 245 246 247 248 250 252 255 257 260 263 267 269 273 277 281 285 288 289 291 294 297 300 302 305 307 310 313 315 317 320 321 322 324 325 327 328 328 328 327 326 326 325 325 326 327 328 330 331 332 332 333 333 334 334 334 334 334 335 336 336 337 338 338 337
258 260 261 263 263 261 258 254 251 248 245 243 243 243 243 243 244 243 243 244 245 245 246 248 249 250 251 252 254 257 260 262 264 267 270 272 275 278 282 286 290 292 294 296 299 301 303 304 306 309 312 313 315 317 319 321 322 324 325 326 326 326 326 325 324 324 325 326 327 328 330 330 331 331 331 331 332 332 332 332 333 334 335 335 336 336 336
259 260 261 262 262 260 258 255 252 249 246 245 246 245 245 244 244 244 244 244 245 247 248 249 250 251 253 255 256 259 262 264 265 267 270 272 274 277 280 284 287 290 293 296 299 300 301 302 304 307 308 310 312 314 316 318 319 321 322 323 324 324 324 324 324 323 324 325 326 326 328 328 329 329 329 329 330 330 330 331 331 332 333 334 334 334 334
257 258 259 259 258 257 255 253 252 251 250 248 248 248 246 246 245 246 246 247 247 249 250 251 252 253 254 256 258 260 262 265 267 269 271 272 274 276 279 282 284 287 291 295 298 299 300 301 303 305 307 308 309 311 313 314 316 317 319 320 321 322 322 323 323 323 323 324 324 325 325 326 327 327 327 328 328 329 329 329 329 329 330 331 332 333 332
251 254 256 257 258 258 257 255 254 254 254 253 252 251 249 247 246 247 248 250 251 251 252 253 255 256 257 257 259 261 264 266 268 270 272 273 274 276 279 282 284 286 290 294 297 299 299 300 301 303 305 306 308 309 310 311 313 314 315 317 318 319 320 321 321 322 322 323 323 324 324 325 326 326 326 327 327 327 327 327 327 327 328 329 330 331 330
Height
5687 5689 5692 5695 5696 5698 5701 5703 5705 5709 5712 5715 5717 5718 5718 5719 5718 5718 5721 5723 5725 5727 5728 5729 5731 5732 5733 5734 5736 5737 5739 5740 5742 5744 5745 5746 5747 5748 5749 5749 5750 5751 5751 5752 5752 5752 5751 5751 5751 5751 5750 5750 5750 5749 5748 5748 5748 5747 5747 5746 5746 5745 5745 5744 5744 5743 5743 5742 5742 5741 5740 5740 5739 5738 5737 5735 5734 5733 5732 5731 5730 5729 5728 5727 5726 5724 5722
5686 5688 5690 5692 5694 5696 5699 5701 5704 5707 5709 5710 5712 5714 5713 5713 5713 5714 5717 5720 5722 5724 5725 5727 5728 5729 5730 5732 5733 5734 5736 5738 5739 5741 5742 5743 5743 5744 5745 5746 5746 5747 5748 5748 5748 5747 5746 5747 5748 5747 5746 5746 5746 5745 5745 5744 5744 5743 5743 5742 5742 5741 5740 5740 5739 5739 5738 5738 5737 5736 5736 5735 5734 5733 5732 5731 5730 5729 5728 5726 5725 5724 5723 5722 5721 5719 5718
5683 5685 5687 5689 5691 5692 5694 5696 5699 5701 5702 5704 5707 5708 5707 5707 5710 5711 5714 5717 5719 5721 5723 5724 5725 5727 5728 5729 5731 5732 5734 5735 5737 5738 5739 5739 5740 5741 5742 5742 5743 5744 5744 5745 5744 5742 5742 5744 5743 5742 5742 5742 5742 5741 5741 5740 5740 5739 5739 5738 5737 5737 5736 5736 5735 5734 5733 5733 5732 5732 5731 5730 5730 5729 5727 5726 5725 5724 5722 5721 5720 5719 5718 5717 5716 5714 5713
5680 5682 5683 5686 5688 5688 5689 5691 5693 5694 5696 5699 5701 5701 5701 5704 5708 5710 5713 5716 5717 5719 5720 5721 5723 5724 5725 5727 5729 5730 5731 5732 5734 5735 5736 5736 5737 5738 5738 5739 5739 5740 5741 5740 5738 5737 5739 5740 5739 5738 5738 5738 5738 5737 5737 5737 5736 5735 5735 5734 5733 5733 5732 5731 5730 5729 5729 5728 5727 5726 5726 5725 5724 5723 5722 5721 5720 5718 5717 5716 5715 5714 5713 5712 5711 5709 5708
5677 5679 5681 5683 5684 5685 5687 5690 5691 5692 5694 5696 5697 5698 5700 5703 5706 5709 5711 5713 5714 5716 5718 5719 5721 5722 5723 5725 5726 5727 5729 5730 5730 5732 5733 5733 5734 5734 5735 5735 5736 5736 5737 5735 5733 5734 5736 5736 5735 5735 5734 5734 5734 5733 5733 5732 5732 5731 5730 5729 5729 5728 5727 5727 5726 5725 5724 5723 5722 5721 5720 5720 5719 5718 5717 5716 5714 5713 5712 5711 5709 5708 5707 5706 5705 5704 5703
5675 5676 5678 5679 5681 5683 5685 5687 5689 5690 5692 5694 5695 5697 5700 5702 5704 5706 5708 5710 5712 5714 5715 5717 5718 5720 5721 5722 5723 5724 5726 5726 5728 5729 5729 5730 5731 5731 5732 5732 5732 5733 5733 5731 5731 5732 5732 5732 5732 5732 5731 5730 5730 5729 5729 5728 5727 5727 5726 5725 5724 5723 5723 5722 5721 5720 5719 5718 5717 5716 5715 5714 5713 5712 5711 5710 5709 5708 5707 5706 5704 5703 5702 5701 5700 5699 5697
5673 5674 5675 5677 5678 5681 5683 5685 5687 5688 5689 5692 5695 5697 5699 5701 5702 5704 5706 5708 5710 5711 5713 5714 5716 5717 5718 5719 5721 5722 5722 5723 5725 5726 5726 5727 5727 5728 5728 5729 5729 5729 5729 5728 5728 5729 5728 5728 5728 5728 5727 5727 5726 5725 5725 5724 5723 5722 5721 5721 5720 5719 5718 5717 5716 5715 5714 5713 5712 5711 5709 5708 5707 5706 5705 5704 5703 5702 5701 5700 5699 5698 5697 5696 5694 5693 5692
5670 5670 5672 5674 5676 5679 5681 5682 5685 5687 5689 5691 5693 5695 5696 5698 5700 5702 5704 5706 5708 5709 5711 5712 5713 5715 5716 5717 5718 5719 5720 5721 5722 5723 5723 5724 5724 5725 5725 5725 5726 5726 5726 5725 5725 5725 5725 5725 5724 5724 5723 5723 5722 5721 5721 5719 5719 5718 5717 5716 5715 5714 5713 5712 5711 5710 5708 5707 5706 5705 5703 5702 5701 5700 5699 5697 5696 5695 5695 5694 5693 5692 5691 5690 5689 5688 5687
5667 5668 5670 5672 5674 5676 5678 5680 5683 5685 5687 5689 5691 5692 5694 5696 5698 5700 5702 5704 5706 5708 5709 5710 5711 5712 5713 5714 5715 5716 5717 5718 5719 5720 5720 5721 5721 5722 5722 5722 5722 5722 5722 5722 5722 5721 5721 5721 5721 5720 5719 5718 5717 5717 5716 5715 5714 5713 5712 5711 5710 5709 5708 5707 5705 5704 5703 5701 5700 5699 5698 5696 5695 5693 5692 5691 5690 5689 5688 5687 5686 5685 5684 5683 5683 5682 5681
5665 5667 5669 5670 5672 5673 5676 5679 5681 5683 5685 5687 5689 5691 5693 5695 5697 5699 5701 5702 5704 5705 5706 5708 5708 5709 5711 5712 5713 5713 5714 5715 5716 5716 5717 5718 5718 5718 5718 5718 5718 5718 5718 5718 5718 5718 5717 5717 5717 5716 5715 5714 5713 5712 5711 5710 5709 5708 5707 5706 5705 5704 5703 5702 5700 5699 5697 5696 5694 5693 5692 5690 5688 5687 5686 5685 5684 5682 5681 5680 5679 5679 5678 5677 5676 5676 5675
5664 5665 5667 5668 5670 5672 5675 5677 5679 5681 5683 5685 5686 5688 5690 5693 5694 5696 5698 5700 5701 5702 5704 5705 5706 5707 5708 5709 5710 5711 5711 5712 5712 5713 5714 5714 5714 5714 5714 5715 5714 5714 5714 5714 5714 5714 5714 5713 5712 5711 5710 5710 5709 5708 5707 5705 5704 5703 5702 5701 5700 5699 5697 5696 5695 5693 5692 5690 5689 5687 5686 5684 5682 5681 5680 5678 5677 5676 5675 5674 5673 5672 5671 5670 5669 5668 5668
5662 5664 5665 5666 5668 5671 5673 5675 5677 5678 5681 5683 5684 5685 5688 5690 5692 5693 5695 5697 5698 5700 5701 5702 5703 5704 5705 5706 5707 5707 5708 5708 5708 5709 5711 5710 5710 5710 5711 5711 5711 5710 5710 5710 5710 5710 5709 5709 5708 5707 5706 5706 5705 5704 5702 5701 5700 5699 5698 5696 5695 5694 5692 5691 5690 5688 5686 5685 5683 5681 5679 5677 5676 5674 5673 5672 5670 5669 5668 5667 5666 5665 5664 5663 5662 5661 5661
5660 5662 5664 5665 5667 5669 5671 5673 5675 5677 5679 5680 5681 5683 5686 5688 5689 5691 5692 5694 5695 5697 5697 5698 5700 5701 5702 5703 5703 5704 5705 5705 5705 5706 5707 5707 5706 5707 5707 5707 5707 5707 5706 5707 5707 5706 5706 5705 5704 5703 5703 5702 5701 5700 5699 5697 5696 5695 5694 5692 5690 5689 5688 5686 5684 5683 5680 5678 5677 5675 5673 5671 5669 5667 5666 5665 5663 5662 5660 5659 5658 5657 5656 5656 5655 5654 5653
5659 5661 5662 5663 5665 5667 5669 5671 5673 5675 5676 5677 5678 5681 5684 5686 5687 5689 5690 5691 5692 5693 5694 5696 5697 5698 5698 5699 5699 5700 5701 5701 5701 5702 5703 5703 5703 5703 5703 5703 5703 5703 5703 5703 5703 5702 5702 5701 5700 5700 5699 5698 5697 5696 5695 5694 5692 5691 5690 5688 5686 5684 5683 5681 5679 5677 5675 5672 5670 5669 5666 5664 5662 5661 5659 5658 5656 5654 5653 5652 5650 5649 5648 5648 5647 5646 5646
5658 5659 5660 5661 5663 5665 5667 5668 5670 5671 5673 5675 5678 5680 5682 5683 5685 5686 5687 5688 5689 5690 5691 5692 5693 5694 5695 5695 5696 5697 5697 5698 5698 5698 5698 5699 5699 5699 5700 5700 5700 5700 5700 5700 5699 5699 5698 5698 5697 5696 5696 5695 5694 5693 5691 5690 5688 5687 5685 5683 5682 5680 5678 5675 5673 5672 5669 5666 5664 5662 5659 5656 5655 5653 5652 5650 5649 5647 5646 5644 5643 5642 5641 5640 5639 5638 5637
5656 5657 5658 5660 5662 5663 5664 5666 5668 5669 5672 5674 5676 5677 5678 5680 5681 5683 5684 5685 5686 5686 5688 5689 5689 5690 5691 5692 5692 5693 5693 5694 5694 5695 5695 5695 5695 5696 5696 5696 5696 5696 5696 5696 5696 5695 5695 5694 5694 5693 5692 5691 5690 5689 5688 5686 5685 5683 5681 5679 5677 5675 5673 5670 5668 5665 5663 5660 5657 5655 5653 5650 5648 5646 5644 5642 5641 5639 5638 5636 5635 5634 5633 5632 5632 5631 5630
5655 5655 5656 5659 5660 5661 5662 5664 5666 5668 5670 5671 5672 5674 5675 5676 5678 5679 5680 5681 5682 5683 5684 5685 5686 5687 5688 5688 5689 5689 5689 5690 5691 5691 5692 5692 5692 5693 5693 5693 5693 5693 5693 5693 5693 5692 5692 5691 5690 5689 5689 5688 5686 5685 5684 5682 5681 5679 5677 5674 5673 5670 5668 5665 5663 5660 5657 5654 5651 5648 5646 5643 5641 5639 5637 5635 5633 5631 5629 5628 5627 5626 5625 5625 5624 5623 5622
5653 5653 5654 5657 5658 5659 5661 5662 5664 5666 5667 5668 5669 5671 5672 5673 5674 5676 5677 5677 5678 5679 5681 5681 5682 5683 5684 5684 5685 5685 5686 5687 5687 5688 5688 5689 5689 5689 5690 5690 5690 5690 5690 5690 5690 5689 5689 5688 5687 5686 5685 5684 5683 5682 5680 5679 5677 5675 5673 5670 5668 5666 5663 5661 5658 5655 5652 5649 5646 5642 5639 5637 5634 5632 5630 5628 5626 5624 5622 5620 5619 5618 5617 5616 5616 5615 5615
5651 5652 5653 5655 5656 5658 5659 5660 5662 5664 5665 5666 5667 5668 5669 5670 5671 5672 5673 5674 5675 5676 5677 5678 5679 5679 5680 5681 5682 5682 5683 5683 5684 5684 5685 5686 5686 5687 5687 5687 5687 5687 5687 5687 5687 5686 5685 5684 5684 5683 5682 5681 5680 5679 5677 5675 5674 5672 5670 5667 5665 5663 5661 5658 5655 5652 5649 5646 5642 5639 5635 5632 5629 5626 5624 5621 5619 5617 5615 5613 5612 5610 5609 5608 5607 5606 5606
5649 5650 5651 5652 5653 5655 5656 5657 5659 5661 5662 5663 5664 5665 5666 5667 5667 5668 5669 5670 5671 5672 5673 5674 5675 5676 5677 5678 5679 5679 5680 5680 5681 5682 5682 5683 5683 5684 5684 5684 5684 5684 5684 5684 5684 5683 5682 5682 5681 5681 5680 5679 5677 5676 5674 5673 5671 5669 5667 5665 5663 5661 5659 5656 5653 5650 5647 5644 5641 5637 5634 5630 5626 5623 5620 5617 5614 5612 5609 5607 5606 5604 5602 5601 5599 5598 5598
5646 5647 5648 5650 5651 5652 5653 5655 5656 5658 5659 5660 5661 5662 5663 5663 5664 5665 5666 5667 5668 5669 5670 5671 5672 5673 5674 5675 5676 5676 5677 5678 5678 5679 5679 5680 5680 5681 5681 5682 5682 5682 5682 5682 5681 5681 5680 5679 5679 5678 5677 5676 5675 5674 5672 5671 5669 5667 5666 5664 5661 5659 5657 5655 5652 5649 5646 5643 5639 5636 5632 5629 5625 5621 5618 5614 5611 5608 5605 5603 5600 5598 5596 5594 5593 5592 5590
5643 5645 5646 5647 5648 5649 5651 5652 5654 5655 5656 5657 5657 5659 5660 5660 5661 5662 5663 5664 5665 5666 5667 5668 5669 5670 5671 5672 5673 5674 5674 5675 5676 5676 5677 5678 5678 5679 5679 5679 5680 5680 5679 5679 5679 5678 5678 5677 5677 5676 5675 5674 5673 5672 5670 5669 5667 5666 5664 5662 5660 5658 5656 5653 5651 5648 5645 5642 5638 5635 5631 5628 5624 5620 5616 5613 5609 5606 5603 5600 5597 5593 5591 5589 5587 5585 5584
5642 5642 5643 5645 5646 5647 5648 5649 5650 5652 5653 5653 5654 5656 5657 5657 5658 5659 5660 5661 5662 5663 5664 5665 5666 5667 5668 5669 5670 5671 5672 5673 5673 5674 5675 5676 5676 5677 5677 5677 5678 5678 5678 5677 5677 5677 5676 5676 5675 5674 5673 5672 5671 5670 5668 5667 5665 5664 5662 5660 5658 5656 5654 5652 5650 5647 5644 5641 5637 5634 5630 5626 5623 5619 5615 5612 5608 5604 5601 5598 5595 5591 5588 5584 5582 5580 5578
5639 5640 5642 5643 5644 5644 5644 5645 5647 5649 5649 5650 5651 5653 5654 5655 5656 5657 5657 5658 5659 5660 5661 5662 5663 5664 5665 5667 5668 5669 5670 5671 5672 5672 5673 5674 5675 5675 5676 5676 5676 5676 5676 5676 5675 5675 5675 5674 5673 5672 5671 5670 5669 5668 5667 5665 5664 5662 5660 5659 5657 5655 5653 5651 5648 5645 5643 5640 5636 5633 5630 5626 5622 5618 5614 5610 5607 5603 5599 5596 5593 5589 5586 5582 5578 5576 5573
5637 5638 5639 5640 5640 5640 5641 5642 5644 5645 5646 5647 5649 5650 5651 5652 5653 5654 5655 5656 5657 5658 5659 5660 5661 5662 5663 5665 5666 5667 5668 5669 5670 5671 5672 5672 5673 5674 5674 5674 5674 5675 5675 5674 5674 5673 5673 5672 5671 5670 5669 5668 5667 5666 5665 5663 5662 5660 5659 5657 5655 5653 5651 5649 5647 5644 5641 5638 5635 5632 5628 5625 5621 5617 5613 5609 5605 5601 5597 5593 5590 5587 5584 5580 5576 5572 5569
5635 5636 5636 5636 5637 5638 5639 5640 5641 5643 5644 5645 5646 5647 5648 5649 5650 5651 5652 5653 5655 5656 5657 5658 5659 5661 5662 5663 5664 5665 5667 5668 5669 5670 5670 5671 5672 5672 5673 5673 5673 5673 5673 5673 5672 5672 5671 5670 5670 5669 5668 5667 5666 5665 5663 5662 5660 5659 5658 5656 5654 5652 5650 5647 5645 5643 5640 5637 5634 5631 5627 5624 5620 5616 5612 5608 5604 5599 5595 5591 5587 5583 5580 5577 5572 5568 5565
5632 5633 5634 5634 5635 5636 5637 5638 5639 5640 5641 5642 5643 5645 5646 5647 5648 5649 5650 5651 5653 5654 5655 5656 5658 5659 5660 5662 5663 5664 5665 5667 5668 5669 5669 5670 5671 5671 5672 5672 5672 5672 5672 5671 5671 5670 5670 5669 5668 5667 5666 5665 5664 5663 5662 5660 5659 5658 5656 5655 5653 5651 5649 5646 5644 5641 5638 5636 5633 5629 5626 5622 5618 5615 5611 5607 5603 5599 5594 5590 5585 5581 5576 5573 5569 5565 5562
5630 5631 5632 5632 5633 5634 5634 5635 5636 5638 5639 5640 5641 5642 5644 5645 5646 5647 5649 5650 5651 5652 5654 5655 5657 5658 5659 5661 5662 5663 5665 5666 5667 5668 5668 5669 5670 5670 5671 5671 5671 5671 5670 5670 5670 5669 5668 5668 5667 5666 5665 5664 5663 5662 5660 5659 5658 5656 5655 5653 5651 5649 5647 5645 5642 5640 5637 5634 5631 5628 5625 5621 5618 5614 5610 5606 5602 5598 5593 5589 5584 5580 5575 5571 5567 5563 5559
5628 5628 5629 5629 5630 5631 5632 5633 5634 5635 5637 5638 5639 5640 5642 5643 5644 5645 5647 5648 5650 5651 5653 5654 5656 5657 5658 5660 5661 5663 5664 5665 5666 5667 5668 5668 5669 5669 5670 5670 5670 5669 5669 5669 5668 5668 5667 5666 5665 5665 5664 5663 5662 5660 5659 5657 5656 5654 5653 5651 5650 5648 5646 5643 5641 5638 5636 5633 5629 5626 5623 5620 5617 5613 5609 5605 5602 5598 5593 5588 5584 5579 5575 5570 5565 5561 5557
5626 5626 5626 5627 5628 5629 5630 5631 5632 5634 5635 5636 5637 5639 5640 5641 5642 5644 5645 5647 5649 5650 5652 5653 5655 5656 5658 5659 5660 5662 5663 5664 5665 5666 5667 5667 5668 5668 5668 5668 5668 5668 5668 5667 5667 5666 5665 5665 5664 5663 5662 5661 5660 5659 5657 5656 5655 5653 5651 5649 5647 5646 5644 5642 5639 5637 5634 5631 5628 5625 5622 5619 5615 5612 5608 5604 5601 5597 5592 5588 5583 5579 5574 5569 5565 5560 5556
5625 5626 5626 5626 5627 5628 5629 5630 5631 5632 5633 5635 5636 5637 5639 5640 5642 5643 5645 5646 5648 5650 5651 5653 5654 5656 5657 5658 5660 5661 5662 5663 5664 5665 5666 5666 5667 5667 5667 5667 5667 5667 5666 5666 5665 5665 5664 5663 5663 5662 5661 5660 5659 5657 5656 5654 5653 5651 5650 5648 5646 5644 5642 5640 5638 5635 5633 5630 5627 5624 5621 5617 5614 5611 5607 5603 5600 5595 5591 5587 5583 5578 5574 5569 5564 5559 5555
5625 5626 5626 5627 5627 5628 5629 5630 5631 5632 5633 5634 5635 5637 5638 5639 5641 5643 5644 5646 5648 5649 5651 5652 5654 5655 5657 5658 5659 5660 5661 5662 5664 5664 5665 5665 5666 5666 5666 5666 5666 5665 5665 5664 5664 5663 5663 5662 5662 5661 5660 5659 5657 5656 5654 5653 5651 5649 5648 5646 5645 5643 5641 5638 5636 5634 5631 5628 5625 5622 5619 5616 5612 5609 5606 5602 5598 5595 5591 5587 5583 5578 5573 5568 5563 5559 5554
5625 5626 5626 5627 5628 5628 5629 5630 5631 5632 5633 5634 5635 5636 5638 5639 5641 5643 5644 5646 5647 5649 5650 5652 5653 5655 5656 5657 5658 5660 5661 5662 5663 5663 5664 5664 5665 5665 5665 5665 5665 5664 5664 5663 5663 5662 5662 5661 5661 5660 5658 5657 5656 5654 5653 5651 5649 5648 5646 5644 5642 5641 5639 5636 5634 5632 5629 5626 5623 5620 5617 5614 5611 5607 5604 5600 5597 5593 5590 5586 5582 5578 5573 5568 5563 5558 5554
5626 5626 5627 5627 5628 5629 5630 5631 5632 5632 5633 5634 5636 5637 5638 5640 5641 5642 5644 5645 5647 5648 5650 5652 5653 5654 5656 5657 5658 5659 5660 5661 5662 5663 5663 5663 5664 5664 5664 5664 5663 5663 5663 5662 5662 5661 5661 5660 5659 5658 5657 5656 5654 5653 5651 5649 5648 5646 5644 5642 5641 5639 5637 5635 5632 5630 5627 5624 5622 5619 5616 5613 5609 5606 5602 5599 5596 5592 5588 5584 5580 5576 5572 5568 5563 5559 5554
5626 5627 5627 5628 5628 5629 5630 5631 5632 5633 5634 5635 5636 5637 5639 5640 5641 5642 5644 5645 5646 5648 5650 5651 5652 5654 5655 5656 5657 5658 5660 5660 5661 5662 5662 5662 5663 5663 5663 5663 5662 5662 5662 5661 5661 5660 5660 5659 5658 5657 5656 5654 5653 5651 5650 5648 5646 5644 5643 5641 5639 5637 5635 5633 5630 5628 5625 5623 5620 5617 5613 5610 5608 5604 5601 5598 5594 5590 5587 5583 5579 5575 5571 5567 5563 5559 5555
5626 5627 5627 5628 5629 5630 5631 5632 5633 5634 5635 5635 5636 5637 5638 5640 5641 5642 5643 5645 5646 5648 5649 5650 5652 5653 5654 5655 5657 5658 5659 5659 5660 5661 5661 5661 5661 5662 5661 5661 5661 5661 5661 5660 5660 5659 5659 5658 5657 5656 5654 5653 5651 5650 5648 5646 5645 5643 5641 5639 5637 5635 5633 5631 5628 5626 5623 5621 5618 5615 5612 5609 5606 5602 5599 5596 5592 5589 5585 5581 5578 5574 5570 5567 5563 5559 5554
5626 5627 5627 5628 5629 5630 5631 5632 5633 5634 5634 5635 5636 5637 5638 5639 5641 5642 5643 5644 5646 5647 5648 5650 5651 5652 5653 5655 5656 5657 5658 5658 5659 5659 5660 5660 5660 5660 5660 5660 5660 5659 5659 5659 5658 5658 5657 5656 5655 5654 5653 5652 5650 5648 5646 5644 5643 5641 5639 5637 5635 5633 5631 5629 5627 5624 5622 5619 5616 5613 5610 5607 5604 5600 5597 5594 5590 5587 5584 5580 5576 5573 5569 5566 5562 5558 5554
5626 5627 5628 5628 5629 5630 5631 5632 5633 5633 5634 5635 5636 5637 5638 5639 5640 5641 5643 5644 5645 5646 5647 5649 5650 5651 5653 5654 5655 5656 5657 5657 5658 5658 5658 5659 5659 5659 5659 5659 5658 5658 5658 5657 5657 5656 5655 5654 5654 5653 5651 5650 5648 5646 5644 5643 5641 5639 5637 5635 5634 5632 5629 5627 5625 5622 5620 5617 5615 5612 5609 5606 5603 5599 5596 5592 5589 5586 5582 5579 5575 5572 5568 5564 5561 5557 5553
5626 5627 5628 5628 5629 5630 5631 5632 5632 5633 5634 5635 5636 5636 5637 5638 5639 5641 5642 5643 5644 5645 5646 5648 5649 5650 5652 5653 5654 5655 5655 5656 5656 5657 5657 5657 5657 5657 5657 5657 5657 5656 5656 5656 5655 5655 5654 5653 5652 5651 5650 5648 5646 5644 5642 5640 5639 5637 5635 5634 5632 5630 5628 5625 5623 5620 5618 5616 5613 5610 5607 5604 5601 5598 5595 5591 5588 5584 5581 5577 5574 5570 5566 5562 5559 5556 5552
5626 5627 5628 5628 5629 5630 5630 5631 5632 5632 5633 5634 5635 5636 5637 5638 5639 5640 5641 5642 5643 5644 5645 5647 5648 5649 5650 5651 5652 5653 5654 5654 5655 5655 5656 5656 5656 5656 5656 5655 5655 5655 5654 5654 5654 5653 5652 5651 5650 5649 5648 5646 5644 5642 5640 5638 5637 5635 5633 5632 5630 5628 5626 5624 5621 5619 5616 5614 5611 5608 5605 5602 5599 5596 5593 5590 5586 5583 5580 5576 5573 5569 5565 5561 5558 5555 5552
5626 5626 5627 5628 5628 5629 5629 5630 5631 5632 5632 5633 5634 5635 5636 5637 5638 5639 5640 5641 5642 5643 5644 5646 5647 5648 5649 5650 5651 5652 5652 5653 5653 5653 5654 5654 5654 5654 5654 5654 5653 5653 5653 5652 5652 5651 5650 5649 5648 5647 5645 5644 5642 5640 5638 5636 5635 5633 5631 5629 5628 5626 5624 5622 5619 5617 5614 5612 5609 5606 5604 5601 5598 5594 5591 5588 5585 5582 5578 5575 5572 5568 5565 5561 5557 5554 5551
5625 5626 5626 5627 5627 5628 5628 5629 5630 5631 5631 5632 5633 5634 5635 5636 5637 5638 5638 5639 5641 5642 5643 5644 5645 5647 5647 5648 5649 5650 5651 5651 5651 5652 5652 5652 5652 5652 5652 5652 5652 5651 5650 5650 5649 5649 5648 5647 5645 5644 5643 5641 5639 5638 5636 5634 5632 5631 5629 5627 5625 5624 5622 5620 5617 5615 5613 5610 5607 5604 5602 5599 5596 5593 5590 5586 5583 5580 5577 5574 5570 5567 5564 5560 5557 5554 5551
5625 5625 5625 5626 5626 5627 5627 5628 5629 5629 5630 5631 5632 5633 5634 5635 5635 5636 5637 5638 5639 5640 5642 5643 5644 5645 5646 5647 5647 5648 5649 5649 5649 5650 5650 5650 5650 5650 5650 5650 5650 5649 5648 5648 5647 5646 5646 5644 5643 5641 5640 5639 5637 5635 5633 5631 5630 5628 5627 5625 5624 5622 5620 5617 5615 5613 5610 5608 5605 5602 5599 5597 5594 5591 5588 5585 5582 5578 5575 5572 5569 5566 5562 5559 5556 5552 5549
5624 5624 5624 5625 5625 5626 5626 5627 5627 5628 5629 5630 5630 5631 5632 5633 5634 5635 5636 5637 5638 5639 5640 5641 5642 5643 5644 5645 5645 5646 5646 5647 5647 5647 5647 5648 5648 5647 5647 5648 5647 5646 5645 5645 5645 5644 5643 5642 5640 5639 5637 5636 5634 5632 5631 5629 5628 5626 5624 5623 5621 5619 5617 5615 5613 5610 5608 5605 5603 5600 5597 5595 5592 5589 5586 5583 5580 5577 5574 5570 5568 5565 5561 5558 5555 5551 5548
5623 5623 5623 5623 5624 5624 5625 5626 5626 5627 5627 5628 5629 5630 5631 5631 5632 5633 5634 5635 5636 5637 5638 5639 5640 5641 5642 5642 5643 5644 5644 5644 5645 5645 5645 5645 5645 5645 5645 5645 5645 5644 5643 5642 5642 5641 5641 5640 5638 5637 5635 5633 5632 5630 5629 5627 5625 5624 5622 5620 5618 5616 5614 5612 5610 5608 5605 5603 5600 5598 5595 5592 5589 5587 5584 5581 5578 5575 5572 5569 5566 5563 5560 5557 5554 5550 5547
5621 5622 5622 5622 5623 5623 5623 5624 5625 5625 5626 5627 5627 5628 5629 5630 5631 5631 5632 5633 5634 5635 5636 5637 5638 5639 5640 5640 5640 5641 5641 5642 5642 5642 5642 5643 5643 5643 5642 5642 5642 5641 5641 5640 5639 5639 5638 5636 5635 5634 5633 5631 5630 5628 5626 5624 5623 5621 5619 5617 5615 5613 5611 5609 5607 5605 5602 5600 5597 5595 5592 5590 5587 5585 5582 5579 5576 5573 5570 5567 5564 5561 5558 5555 5552 5549 5546
5620 5620 5620 5621 5621 5622 5622 5622 5623 5624 5624 5625 5626 5626 5627 5628 5629 5629 5630 5631 5632 5633 5634 5634 5635 5636 5637 5637 5638 5638 5638 5639 5639 5639 5640 5640 5640 5640 5640 5639 5639 5638 5638 5637 5637 5636 5635 5633 5632 5631 5630 5628 5626 5625 5623 5621 5620 5618 5616 5614 5612 5610 5608 5606 5604 5601 5599 5596 5594 5591 5589 5586 5584 5581 5578 5576 5573 5570 5567 5565 5562 5559 5556 5553 5550 5547 5544
5618 5618 5619 5619 5619 5620 5620 5621 5621 5622 5622 5623 5624 5624 5625 5626 5627 5627 5628 5629 5629 5630 5631 5632 5633 5633 5634 5635 5635 5635 5636 5636 5636 5636 5636 5637 5637 5637 5637 5636 5636 5635 5635 5634 5633 5632 5631 5630 5629 5627 5626 5625 5623 5622 5620 5618 5617 5615 5613 5611 5609 5607 5605 5603 5600 5598 5596 5593 5591 5588 5586 5583 5580 5577 5575 5572 5570 5567 5565 5562 5560 5557 5554 5551 5548 5545 5542
5616 5617 5617 5617 5618 5618 5619 5619 5620 5620 5620 5621 5621 5622 5623 5624 5624 5625 5626 5626 5627 5628 5628 5629 5630 5630 5631 5632 5632 5632 5632 5633 5633 5633 5633 5633 5634 5634 5634 5633 5632 5632 5631 5631 5630 5629 5628 5627 5626 5624 5623 5621 5620 5619 5617 5615 5613 5612 5610 5608 5606 5604 5602 5599 5597 5595 5592 5590 5588 5585 5583 5580 5577 5575 5572 5570 5567 5564 5562 5559 5557 5554 5552 5549 5546 5543 5540
5614 5615 5615 5615 5616 5616 5616 5617 5617 5618 5618 5619 5619 5620 5621 5622 5622 5623 5623 5624 5624 5625 5626 5626 5627 5627 5628 5628 5629 5629 5629 5629 5630 5630 5630 5630 5630 5630 5630 5630 5629 5628 5627 5627 5627 5626 5625 5623 5622 5621 5620 5618 5617 5615 5614 5612 5610 5608 5606 5605 5603 5601 5599 5596 5594 5592 5589 5587 5584 5582 5580 5577 5575 5572 5569 5567 5564 5562 5559 5556 5554 5551 5549 5546 5544 5541 5538
5612 5612 5613 5613 5613 5614 5614 5615 5615 5615 5616 5616 5617 5618 5619 5619 5620 5620 5621 5621 5622 5622 5623 5623 5624 5624 5625 5625 5625 5626 5626 5626 5626 5626 5626 5626 5626 5626 5626 5627 5626 5625 5624 5623 5623 5622 5621 5620 5619 5617 5616 5614 5613 5612 5610 5608 5607 5605 5603 5601 5599 5597 5595 5593 5591 5588 5586 5584 5581 5579 5576 5574 5572 5569 5566 5564 5561 5558 5556 5553 5551 5548 5546 5543 5541 5538 5535
5609 5610 5610 5610 5611 5611 5611 5612 5612 5613 5613 5614 5614 5615 5616 5617 5617 5618 5618 5618 5619 5619 5620 5620 5621 5621 5621 5622 5622 5622 5623 5623 5623 5623 5623 5622 5622 5621 5622 5622 5622 5622 5620 5619 5618 5618 5617 5617 5616 5614 5612 5610 5609 5607 5606 5605 5603 5601 5599 5597 5595 5593 5591 5589 5587 5584 5582 5580 5578 5575 5573 5570 5568 5565 5563 5560 5557 5555 5552 5550 5548 5545 5543 5540 5538 5535 5533